Location: Étouvelles
(49.5207°N, 3.5808°E)
Time: 18:12:57
(UTC+00:00)

Cosmos 2263 Rocket - Pass Details

Date: 03 February 2023
Orbit: 825 x 847 km, 71.0° (Epoch: 26 March)

Event Time Altitude Azimuth Distance (km) Brightness Sun altitude
Rises 17:09:15 0° 328° (NNW) 3,375 5.5 -4.6°
Reaches altitude 10° 17:11:43 10° 325° (NW) 2,437 4.8 -5.0°
Maximum altitude 17:17:11 59° 248° (WSW) 954 3.0 -5.8°
Drops below altitude 10° 17:22:37 10° 170° (S) 2,421 4.7 -6.6°
Sets 17:25:03 0° 166° (SSE) 3,351 5.4 -7.0°
